SES-5

Last updated on Tue Sep 22 2026 00:03:12 GMT+0000 (Coordinated Universal Time)

1 38652U 12036A 26264.27621640 .00000000 00000+0 00000+0 0 9992 2 38652 0.0111 24.9488 0002040 151.8026 287.8258 1.00269660 45428
UTC large
Height (km)
Speed (km/s)
/
Latitude / Longitude
Inclination (degrees)
Orbital Period (minutes)
Azimuth
Elevation
Range (km)
Doppler Factor

Next 0 passes for location: London (51.5072 / 0.1276)

No passes found over London.
SES-5